Location: Brahman Valley
(40.6513°N, 111.8855°W)
Time: 20:31:20
(UTC+00:00)

N. Korean satellite - Pass Details

Date: 27 April 2021
Orbit: 451 x 500 km, 97.2° (Epoch: 07 May)

Event Time Altitude Azimuth Distance (km) Brightness Sun altitude
Rises 11:55:45 0° 30° (NNE) 2,525 11.2 -7.0°
Reaches altitude 10° 11:58:27 10° 53° (NE) 1,631 10.9 -6.6°
Maximum altitude 12:00:40 16° 93° (E) 1,297 9.8 -6.2°
Drops below altitude 10° 12:02:51 10° 132° (SE) 1,605 9.5 -5.8°
Sets 12:05:29 0° 155° (SSE) 2,464 10.2 -5.3°
